Duluth, MN

2:21 PM CDT on March 27, 2017 (GMT -0500)
Duluth International

Weather History for KDLH - October, 2012

Change the Weather History Date:

Thursday, October 25, 2012

  Actual Average Record
Temperature  
Mean Temperature 38 °F 40 °F  
Max Temperature 44 °F 47 °F 72 °F (1989)
Min Temperature 32 °F 32 °F 8 °F (1887)
Degree Days  
Heating Degree Days 27 25  
Month to date heating degree days 511 516  
Since 1 July heating degree days 839 963  
Cooling Degree Days 0 0  
Month to date cooling degree days 0 0  
Year to date cooling degree days 409 204  
Moisture  
Dew Point 33 °F    
Average Humidity 84    
Maximum Humidity 92    
Minimum Humidity 75    
Precipitation  
Precipitation 0.37 in 0.08 in 1.35 in (1875)
Month to date precipitation 1.33 2.39  
Year to date precipitation 30.42 27.20  
Snow  
Snow 0.10 in 0.10 in 1.70 in (2001)
Month to date snowfall 1.0 1.4  
Since 1 July snowfall 1.1 1.5  
Since 1 September snowfall 1.1 1.5  
Snow Depth 0.00 in    
Sea Level Pressure  
Sea Level Pressure 29.78 in    
Wind  
Wind Speed 17 mph (NW)    
Max Wind Speed 24 mph    
Max Gust Speed 33 mph    
Visibility 6 miles    
Events Rain , Snow    
T = Trace of Precipitation, MM = Missing Value Source: NWS Daily Summary

Daily Weather History Graph

Daily Weather History Graph

Search for Another Location

Airport or City:

Trip Planner

Search our weather history database for the weather conditions in past years. The results will help you decide how hot, cold, wet, or windy it might be!

Date:

Astronomy

Oct. 25, 2012 Rise Set
Actual Time 7:41 AM CDT 6:03 PM CDT
Civil Twilight 7:10 AM CDT 6:34 PM CDT
Nautical Twilight 6:34 AM CDT 7:09 PM CDT
Astronomical Twilight 5:59 AM CDT 7:44 PM CDT
Moon 4:01 PM CDT (10/25) 3:25 AM CDT (10/25)
Length of Visible Light 11h 24m
Length of Day
10h 21m
Waxing Gibbous, 84% of the Moon is Illuminated
Oct 25
Waxing Gibbous
Oct 29
Full
Nov 6
Last Quarter
Nov 13
New
Nov 20
First Quarter

Hourly Weather History & Observations

Time (CDT) Temp. Windchill Dew Point Humidity Pressure Visibility Wind Dir Wind Speed Gust Speed Precip Events Conditions
12:21 AM 44.6 °F 38.1 °F 42.8 °F 93% 29.81 in 8.0 mi NNW 13.8 mph 20.7 mph 0.01 in   Light Drizzle
12:55 AM 44.1 °F 37.1 °F 41.0 °F 89% 29.81 in 7.0 mi North 15.0 mph 25.3 mph 0.06 in   Light Drizzle
1:23 AM 42.8 °F 35.8 °F 39.2 °F 87% 29.78 in 10.0 mi NNW 13.8 mph - 0.00 in   Light Drizzle
1:42 AM 42.8 °F 36.2 °F 39.2 °F 87% 29.78 in 10.0 mi NNW 12.7 mph 21.9 mph 0.00 in   Overcast
1:55 AM 42.1 °F 34.5 °F 39.0 °F 89% 29.78 in 9.0 mi North 15.0 mph 24.2 mph 0.00 in   Overcast
2:55 AM 42.1 °F 33.3 °F 37.9 °F 85% 29.75 in 10.0 mi NNW 19.6 mph 25.3 mph N/A   Overcast
3:55 AM 41.0 °F 33.1 °F 37.9 °F 89% 29.77 in 8.0 mi NNW 15.0 mph - 0.00 in Rain Light Rain
4:55 AM 41.0 °F 32.8 °F 37.9 °F 89% 29.73 in 10.0 mi NNW 16.1 mph 24.2 mph 0.01 in   Light Drizzle
5:35 AM 41.0 °F 32.5 °F 37.4 °F 87% 29.70 in 6.0 mi NNW 17.3 mph 21.9 mph 0.00 in Rain Light Rain
5:47 AM 41.0 °F 32.8 °F 37.4 °F 87% 29.69 in 4.0 mi NNW 16.1 mph 21.9 mph 0.00 in Rain Light Rain
5:55 AM 41.0 °F 33.1 °F 37.9 °F 89% 29.71 in 3.0 mi North 15.0 mph 23.0 mph 0.00 in Rain Light Rain
6:43 AM 39.2 °F 30.5 °F 37.4 °F 93% 29.69 in 2.5 mi NNW 16.1 mph 21.9 mph 0.05 in Rain Rain
6:55 AM 39.9 °F 31.4 °F 37.0 °F 89% 29.74 in 2.5 mi NW 16.1 mph 24.2 mph 0.08 in Rain Rain
7:09 AM 39.2 °F 29.3 °F 37.4 °F 93% 29.71 in 3.0 mi NW 20.7 mph 27.6 mph N/A Rain Rain
7:55 AM 37.0 °F 26.4 °F 34.0 °F 89% 29.72 in 5.0 mi NNW 20.7 mph 29.9 mph 0.13 in Rain Rain
8:55 AM 36.0 °F 25.6 °F 33.1 °F 89% 29.74 in 9.0 mi NW 18.4 mph 25.3 mph 0.07 in Rain , Snow Light Rain
9:17 AM 35.6 °F 26.2 °F 32.0 °F 87% 29.70 in 2.5 mi NNW 15.0 mph 23.0 mph N/A Rain , Snow Light Rain
9:55 AM 34.0 °F 23.4 °F 32.0 °F 92% 29.72 in 1.8 mi NW 17.3 mph 23.0 mph 0.02 in Snow Light Snow
10:18 AM 35.6 °F 25.5 °F 32.0 °F 87% 29.69 in 2.0 mi NNW 17.3 mph 27.6 mph N/A Snow Light Snow
10:30 AM 35.6 °F 25.2 °F 32.0 °F 87% 29.70 in 1.8 mi NNW 18.4 mph 26.5 mph N/A Snow Light Snow
10:55 AM 35.1 °F 25.5 °F 32.0 °F 89% 29.73 in 1.8 mi NW 15.0 mph 25.3 mph 0.01 in Snow Light Snow
11:15 AM 33.8 °F 22.2 °F 32.0 °F 93% 29.69 in 0.8 mi NW 20.7 mph 29.9 mph 0.00 in Snow Light Snow
11:41 AM 33.8 °F 22.8 °F 32.0 °F 93% 29.70 in 1.0 mi NW 18.4 mph 26.5 mph 0.01 in Snow Light Snow
11:55 AM 34.0 °F 23.8 °F 30.9 °F 89% 29.76 in 1.0 mi NW 16.1 mph 28.8 mph 0.01 in Snow Light Snow
11:59 AM 33.8 °F 23.5 °F 32.0 °F 93% 29.72 in 0.8 mi NW 16.1 mph 28.8 mph 0.00 in Snow Light Snow
12:55 PM 34.0 °F 23.4 °F 30.9 °F 89% 29.76 in 0.8 mi NW 17.3 mph 28.8 mph 0.03 in Snow Light Snow
1:35 PM 33.8 °F 21.9 °F 30.2 °F 87% 29.72 in 1.0 mi NW 21.9 mph 28.8 mph 0.00 in Snow Light Snow
1:55 PM 34.0 °F 24.6 °F 30.9 °F 89% 29.77 in 1.0 mi NW 13.8 mph - 0.01 in Snow Light Snow
2:03 PM 33.8 °F 23.9 °F 30.2 °F 87% 29.73 in 0.8 mi NW 15.0 mph 24.2 mph 0.00 in Snow Light Snow
2:29 PM 33.8 °F 23.2 °F 30.2 °F 87% 29.74 in 1.5 mi NW 17.3 mph 25.3 mph 0.00 in Snow Light Snow
2:55 PM 34.0 °F 22.7 °F 30.9 °F 89% 29.79 in 1.5 mi NW 19.6 mph 26.5 mph 0.00 in Snow Light Snow
3:24 PM 33.8 °F 23.2 °F 30.2 °F 87% 29.76 in 2.0 mi NW 17.3 mph 29.9 mph 0.00 in Snow Light Snow
3:33 PM 33.8 °F 22.8 °F 30.2 °F 87% 29.76 in 4.0 mi NW 18.4 mph 32.2 mph 0.00 in   Overcast
3:55 PM 34.0 °F 21.5 °F 30.0 °F 85% 29.81 in 10.0 mi NW 24.2 mph 31.1 mph 0.00 in   Overcast
4:55 PM 34.0 °F 22.4 °F 30.0 °F 85% 29.85 in 10.0 mi WNW 20.7 mph 28.8 mph N/A   Overcast
5:08 PM 35.6 °F 25.9 °F 30.2 °F 81% 29.81 in 10.0 mi WNW 16.1 mph 25.3 mph N/A   Overcast
5:11 PM 35.6 °F 25.5 °F 30.2 °F 81% 29.81 in 10.0 mi WNW 17.3 mph 23.0 mph N/A   Overcast
5:55 PM 35.1 °F 24.8 °F 30.9 °F 85% 29.87 in 10.0 mi WNW 17.3 mph 24.2 mph N/A   Overcast
6:05 PM 33.8 °F 23.5 °F 30.2 °F 87% 29.83 in 10.0 mi WNW 16.1 mph - N/A   Mostly Cloudy
6:55 PM 34.0 °F 24.2 °F 30.0 °F 85% 29.91 in 10.0 mi WNW 15.0 mph 24.2 mph N/A   Mostly Cloudy
7:55 PM 35.1 °F 25.5 °F 30.0 °F 82% 29.94 in 10.0 mi West 15.0 mph 21.9 mph N/A   Overcast
8:55 PM 34.0 °F 23.4 °F 28.9 °F 82% 29.96 in 10.0 mi West 17.3 mph 23.0 mph N/A   Mostly Cloudy
9:55 PM 34.0 °F 23.8 °F 28.0 °F 79% 29.99 in 10.0 mi West 16.1 mph 24.2 mph N/A   Mostly Cloudy
10:55 PM 34.0 °F 23.4 °F 27.0 °F 75% 29.99 in 10.0 mi West 17.3 mph 24.2 mph N/A   Mostly Cloudy
11:55 PM 33.1 °F 23.9 °F 27.0 °F 78% 30.01 in 10.0 mi West 12.7 mph - N/A   Partly Cloudy